www.pogodaiklimat.ru

Погода и климат >> Архив погоды >> Австралия >> Западная Австралия >> Уиндем


ПОГОДА в Уиндеме

  • Прогноз погоды в Уиндеме
  • Монитор погоды в Уиндеме

АРХИВ ПОГОДЫ в Уиндеме

Время (UTC), дата Ветер
(напр.,м/с)
 
Видим.   Явления Облачность Т
(С)
Тd
(С)
f
(%)
Тe
(С)
Тes
(С)
Комфортность P
(гПа)
Po
(гПа)
Тmin
(С)
Tmax
(С)
R
(мм)
R24
(мм)
S
(см)
19 14.03 С 3 н/о н/о +29.8 +24.9 75 +43 +43 опасность
перегрева
1006.7 1006.2
20 14.03 С 2 н/о н/о +29.9 +25.0 75 +43 +43 опасность
перегрева
1007.7 1007.2
21 14.03 С 3 н/о н/о +29.5 +24.6 75 +42 +42 опасность
перегрева
1008.8 1008.3
22 14.03 З 4 н/о н/о +30.2 +25.3 75 +44 +44 опасность
перегрева
1008.8 1008.3
23 14.03 З 3 н/о н/о +30.8 +24.9 71 +44 +44 опасность
перегрева
1008.9 1008.4
00 15.03 З 4 н/о н/о +32.1 +24.7 65 +45 +45 опасность
перегрева
1009.7 1009.2
01 15.03 ЮВ 9 н/о н/о +30.1 +19.8 54 +36 +36 очень
душно
1011.6 1011.1 +29.5
02 15.03 В 7 н/о н/о +23.8 +22.2 91 +31 +31 очень
душно
1010.6 1010.1
03 15.03 В 4 н/о н/о +26.4 +22.0 77 +34 +34 очень
душно
1008.1 1007.6
04 15.03 ЮВ 3 н/о {осадки} н/о +28.4 +22.2 69 +37 +37 очень
душно
1007.6 1007.1
05 15.03 СЗ 3 н/о н/о +28.6 +21.4 65 +36 +36 очень
душно
1007.2 1006.7
06 15.03 С 3 н/о н/о +28.5 +22.7 71 +38 +38 очень
душно
1007.4 1006.9
07 15.03 СЗ 5 н/о {туман} н/о +28.5 +23.0 72 +38 +38 очень
душно
1007.4 1006.9
08 15.03 З 4 н/о н/о +28.5 +22.7 71 +38 +38 очень
душно
1007.2 1006.7
09 15.03 СЗ 2 н/о н/о +28.5 +22.0 68 +37 +37 очень
душно
1007.1 1006.6
10 15.03 СЗ 2 н/о н/о +27.4 +22.8 76 +36 +36 очень
душно
1007.5 1007.0
11 15.03 СЗ 1 н/о н/о +27.5 +23.3 78 +37 +37 очень
душно
1008.9 1008.4
12 15.03 СЗ 2 н/о н/о +27.5 +23.1 77 +37 +37 очень
душно
1009.3 1008.8
13 15.03 СЗ 3 н/о н/о +26.6 +23.7 84 +36 +36 очень
душно
1009.7 1009.2 +33.0
14 15.03 СЗ 2 н/о н/о +26.4 +23.5 84 +36 +36 очень
душно
1009.2 1008.7
15 15.03 штиль 0 н/о н/о +26.6 +23.3 82 +36 +36 очень
душно
1008.9 1008.4
16 15.03 СЗ 1 н/о н/о +25.7 +23.2 86 +34 +34 очень
душно
1008.3 1007.8
17 15.03 СЗ 3 н/о н/о +25.6 +23.5 88 +35 +35 очень
душно
1008.1 1007.6
18 15.03 СЗ 2 н/о н/о +25.3 +23.0 87 +34 +34 очень
душно
1007.7 1007.2
19 15.03 СЗ 1 н/о н/о +25.2 +22.5 85 +33 +33 очень
душно
1007.7 1007.2
20 15.03 СЗ 2 н/о н/о +25.2 +23.1 88 +34 +34 очень
душно
1007.6 1007.1
21 15.03 штиль 0 н/о н/о +25.2 +23.1 88 +34 +34 очень
душно
1008.3 1007.8
22 15.03 СВ 2 н/о н/о +25.5 +23.4 88 +34 +34 очень
душно
1008.9 1008.4
23 15.03 С 1 н/о н/о +27.7 +22.6 74 +37 +37 очень
душно
1009.9 1009.4
00 16.03 СЗ 2 н/о н/о +29.6 +22.1 64 +38 +38 очень
душно
1010.6 1010.1
01 16.03 ЮВ 3 н/о н/о +32.4 +21.6 53 +41 +41 опасность
перегрева
1010.4 1009.9 +22.8
02 16.03 ЮВ 3 н/о н/о +33.7 +20.8 47 +41 +41 опасность
перегрева
1009.5 1009.0
03 16.03 ЮЗ 2 н/о н/о +35.0 +20.9 44 +42 +42 опасность
перегрева
1008.5 1008.0
04 16.03 Ю 2 н/о н/о +36.1 +19.1 37 +41 +41 опасность
перегрева
1007.1 1006.6
05 16.03 ЮВ 3 н/о н/о +37.0 +19.4 36 +42 +42 опасность
перегрева
1006.3 1005.8
06 16.03 ЮВ 2 н/о н/о +36.9 +18.4 34 +41 +41 опасность
перегрева
1005.4 1004.9
07 16.03 ЮВ 3 н/о н/о +37.7 +18.7 33 +42 +42 опасность
перегрева
1004.4 1003.9
08 16.03 С 5 н/о н/о +36.7 +20.5 39 +43 +43 опасность
перегрева
1004.3 1003.8
09 16.03 ЮВ 5 н/о н/о +35.1 +20.2 42 +41 +41 опасность
перегрева
1005.4 1004.9
10 16.03 СВ 3 н/о н/о +33.9 +21.0 47 +41 +41 опасность
перегрева
1006.4 1005.9
11 16.03 С 4 н/о н/о +32.7 +23.1 57 +43 +43 опасность
перегрева
1007.5 1007.0
12 16.03 С 5 н/о н/о +31.8 +23.1 60 +42 +42 опасность
перегрева
1008.4 1007.9
13 16.03 СВ 2 н/о н/о +31.6 +23.2 61 +42 +42 опасность
перегрева
1009.1 1008.6 +38.6
14 16.03 С 2 н/о н/о +31.1 +23.7 65 +42 +42 опасность
перегрева
1008.9 1008.4
15 16.03 С 3 н/о н/о +30.5 +23.9 68 +42 +42 опасность
перегрева
1008.5 1008.0
16 16.03 С 2 н/о н/о +30.4 +24.1 69 +42 +42 опасность
перегрева
1008.3 1007.8
17 16.03 СЗ 3 н/о н/о +30.1 +23.8 69 +41 +41 опасность
перегрева
1008.2 1007.7
18 16.03 СЗ 3 н/о н/о +30.0 +24.4 72 +42 +42 опасность
перегрева
1007.9 1007.4
19 16.03 СЗ 2 н/о н/о +29.1 +24.4 76 +41 +41 опасность
перегрева
1007.7 1007.2
20 16.03 СЗ 2 н/о н/о +28.7 +23.8 75 +40 +40 очень
душно
1008.2 1007.7
21 16.03 В 4 н/о н/о +27.9 +25.3 86 +41 +41 опасность
перегрева
1008.4 1007.9
22 16.03 СВ 4 н/о н/о +28.0 +25.2 85 +41 +41 опасность
перегрева
1008.7 1008.2
23 16.03 С 3 н/о н/о +29.1 +23.1 70 +39 +39 очень
душно
1009.4 1008.9
00 17.03 СЗ 3 н/о н/о +29.7 +24.3 73 +42 +42 опасность
перегрева
1010.2 1009.7
01 17.03 СЗ 4 н/о н/о +30.8 +24.4 69 +43 +43 опасность
перегрева
1010.9 1010.4 +28.0
02 17.03 С 6 н/о н/о +31.3 +24.4 67 +44 +44 опасность
перегрева
1010.8 1010.3
03 17.03 СЗ 7 н/о н/о +31.4 +24.0 65 +43 +43 опасность
перегрева
1010.2 1009.7
04 17.03 СЗ 6 н/о н/о +32.3 +23.3 59 +43 +43 опасность
перегрева
1009.0 1008.5
05 17.03 С 4 н/о н/о +32.7 +22.8 56 +43 +43 опасность
перегрева
1007.5 1007.0
06 17.03 С 2 н/о н/о +33.9 +22.3 51 +43 +43 опасность
перегрева
1006.5 1006.0
07 17.03 В 3 н/о н/о +34.3 +22.4 50 +43 +43 опасность
перегрева
1005.9 1005.4
08 17.03 С 3 н/о н/о +33.7 +22.8 53 +44 +44 опасность
перегрева
1005.9 1005.4
09 17.03 С 4 н/о н/о +32.5 +23.2 58 +43 +43 опасность
перегрева
1006.3 1005.8
10 17.03 С 3 н/о н/о +31.2 +23.3 63 +42 +42 опасность
перегрева
1007.4 1006.9
11 17.03 С 4 н/о н/о +31.1 +22.4 60 +40 +40 очень
душно
1008.6 1008.1
12 17.03 С 4 н/о н/о +30.4 +24.1 69 +42 +42 опасность
перегрева
1009.5 1009.0
13 17.03 С 4 н/о н/о +30.2 +23.1 66 +40 +40 очень
душно
1010.1 1009.6 +35.0
14 17.03 С 5 н/о н/о +30.1 +22.5 64 +39 +39 очень
душно
1010.6 1010.1
15 17.03 С 4 н/о н/о +29.6 +22.6 66 +39 +39 очень
душно
1010.4 1009.9
16 17.03 СЗ 3 н/о н/о +28.9 +22.2 67 +38 +38 очень
душно
1009.5 1009.0
17 17.03 СЗ 3 н/о н/о +28.5 +22.0 68 +37 +37 очень
душно
1008.8 1008.3
18 17.03 СЗ 3 н/о н/о +27.8 +22.3 72 +36 +36 очень
душно
1008.5 1008.0
19 17.03 С 2 н/о н/о +26.9 +22.7 78 +36 +36 очень
душно
1008.5 1008.0
20 17.03 С 3 н/о н/о +27.0 +23.3 80 +36 +36 очень
душно
1008.5 1008.0
21 17.03 С 2 н/о н/о +26.6 +22.9 80 +35 +35 очень
душно
1008.4 1007.9
22 17.03 С 2 н/о н/о +26.7 +23.4 82 +36 +36 очень
душно
1008.7 1008.2
23 17.03 З 3 н/о н/о +29.3 +23.3 70 +40 +40 очень
душно
1009.1 1008.6
00 18.03 ЮЗ 3 н/о н/о +30.4 +23.1 65 +41 +41 опасность
перегрева
1009.7 1009.2
01 18.03 Ю 3 н/о н/о +31.9 +22.0 56 +41 +41 опасность
перегрева
1009.7 1009.2 +26.6
02 18.03 СЗ 3 н/о н/о +34.0 +20.4 45 +41 +41 опасность
перегрева
1009.2 1008.7
03 18.03 СЗ 4 н/о н/о +35.4 +20.9 43 +42 +42 опасность
перегрева
1008.3 1007.8
04 18.03 СЗ 6 н/о н/о +36.3 +19.7 38 +42 +42 опасность
перегрева
1007.4 1006.9
05 18.03 С 3 н/о н/о +35.9 +21.3 43 +43 +43 опасность
перегрева
1006.4 1005.9
06 18.03 С 4 н/о н/о +36.9 +21.5 41 +44 +44 опасность
перегрева
1005.4 1004.9
07 18.03 С 4 н/о н/о +35.9 +20.6 41 +42 +42 опасность
перегрева
1005.0 1004.5
08 18.03 С 4 н/о н/о +36.1 +20.4 40 +42 +42 опасность
перегрева
1004.7 1004.2
09 18.03 С 5 н/о н/о +34.4 +21.4 47 +42 +42 опасность
перегрева
1005.3 1004.8
10 18.03 С 6 н/о н/о +32.4 +22.8 57 +42 +42 опасность
перегрева
1006.5 1006.0
11 18.03 С 5 н/о н/о +31.1 +22.4 60 +40 +40 очень
душно
1007.4 1006.9
12 18.03 СВ 7 н/о н/о +30.5 +24.4 70 +43 +43 опасность
перегрева
1008.7 1008.2
13 18.03 С 5 н/о н/о +30.2 +24.4 71 +42 +42 опасность
перегрева
1009.4 1008.9 +37.9
14 18.03 С 4 н/о н/о +30.0 +24.6 73 +43 +43 опасность
перегрева
1009.1 1008.6
15 18.03 С 3 н/о н/о +29.9 +24.5 73 +42 +42 опасность
перегрева
1008.7 1008.2
16 18.03 СЗ 5 н/о н/о +30.0 +24.4 72 +42 +42 опасность
перегрева
1007.9 1007.4
17 18.03 СЗ 5 н/о н/о +29.8 +22.3 64 +39 +39 очень
душно
1007.3 1006.8
18 18.03 СЗ 5 н/о н/о +29.6 +22.3 65 +39 +39 очень
душно
1006.8 1006.3
19 18.03 З 6 н/о н/о +29.0 +22.2 67 +38 +38 очень
душно
1006.6 1006.1
20 18.03 З 4 н/о н/о +28.5 +22.5 70 +37 +37 очень
душно
1006.6 1006.1
21 18.03 З 4 н/о н/о +28.4 +22.6 71 +38 +38 очень
душно
1007.3 1006.8
22 18.03 З 4 н/о н/о +28.9 +22.6 69 +38 +38 очень
душно
1008.0 1007.5
23 18.03 З 3 н/о н/о +30.0 +22.9 66 +40 +40 очень
душно
1008.7 1008.2
00 19.03 З 4 н/о н/о +31.4 +22.1 58 +40 +40 очень
душно
1009.3 1008.8
01 19.03 З 4 н/о н/о +31.9 +21.7 55 +40 +40 очень
душно
1009.3 1008.8 +28.5
02 19.03 З 4 н/о н/о +33.9 +22.0 50 +43 +43 опасность
перегрева
1008.6 1008.1
03 19.03 СЗ 4 н/о н/о +34.7 +20.6 44 +41 +41 опасность
перегрева
1007.8 1007.3
04 19.03 З 3 н/о н/о +36.2 +20.8 41 +43 +43 опасность
перегрева
1006.7 1006.2
05 19.03 СЗ 3 н/о н/о +37.2 +18.7 34 +41 +41 опасность
перегрева
1005.6 1005.1
06 19.03 С 3 н/о н/о +37.7 +18.7 33 +42 +42 опасность
перегрева
1004.9 1004.4
07 19.03 С 4 н/о н/о +38.2 +19.1 33 +43 +43 опасность
перегрева
1004.4 1003.9
08 19.03 С 4 н/о н/о +36.8 +20.6 39 +43 +43 опасность
перегрева
1004.4 1003.9
09 19.03 С 6 н/о н/о +34.7 +22.1 48 +43 +43 опасность
перегрева
1004.8 1004.3
10 19.03 С 6 н/о н/о +32.2 +24.0 62 +44 +44 опасность
перегрева
1005.6 1005.1
11 19.03 С 6 н/о н/о +31.2 +25.1 70 +45 +45 опасность
перегрева
1006.7 1006.2
12 19.03 С 6 н/о н/о +31.0 +24.6 69 +44 +44 опасность
перегрева
1007.5 1007.0
13 19.03 С 3 н/о н/о +30.4 +24.5 71 +43 +43 опасность
перегрева
1008.3 1007.8 +39.1
14 19.03 СЗ 2 н/о н/о +30.6 +24.7 71 +43 +43 опасность
перегрева
1008.3 1007.8
15 19.03 С 3 н/о н/о +30.1 +24.5 72 +42 +42 опасность
перегрева
1007.8 1007.3
16 19.03 С 3 н/о н/о +29.6 +24.2 73 +41 +41 опасность
перегрева
1006.9 1006.4
17 19.03 СЗ 3 н/о н/о +29.3 +24.2 74 +41 +41 опасность
перегрева
1006.1 1005.6
18 19.03 З 4 н/о н/о +29.7 +24.1 72 +41 +41 опасность
перегрева
1005.7 1005.2
19 19.03 З 4 н/о н/о +29.1 +23.3 71 +39 +39 очень
душно
1005.8 1005.3
20 19.03 З 3 н/о н/о +28.8 +23.2 72 +39 +39 очень
душно
1006.4 1005.9
21 19.03 З 3 н/о н/о +28.7 +23.1 72 +39 +39 очень
душно
1006.9 1006.4
22 19.03 З 3 н/о н/о +28.7 +23.1 72 +39 +39 очень
душно
1007.7 1007.2
23 19.03 З 4 н/о н/о +30.1 +22.3 63 +39 +39 очень
душно
1008.6 1008.1
00 20.03 З 5 н/о н/о +31.4 +22.1 58 +40 +40 очень
душно
1009.4 1008.9
01 20.03 З 5 н/о н/о +32.9 +22.4 54 +42 +42 опасность
перегрева
1009.5 1009.0 +28.5
02 20.03 З 4 н/о н/о +33.8 +21.9 50 +42 +42 опасность
перегрева
1009.1 1008.6
03 20.03 З 4 н/о н/о +35.0 +21.3 45 +43 +43 опасность
перегрева
1008.3 1007.8
04 20.03 З 4 н/о н/о +36.2 +21.2 42 +44 +44 опасность
перегрева
1007.1 1006.6
05 20.03 З 3 н/о н/о +38.1 +20.9 37 +45 +45 опасность
перегрева
1006.1 1005.6
06 20.03 З 4 н/о н/о +38.3 +18.7 32 +42 +42 опасность
перегрева
1005.5 1005.0
07 20.03 З 3 н/о н/о +38.5 +18.4 31 +42 +42 опасность
перегрева
1005.0 1004.5
08 20.03 СЗ 4 н/о н/о +38.7 +18.0 30 +42 +42 опасность
перегрева
1004.9 1004.4
09 20.03 С 5 н/о н/о +37.0 +20.3 38 +43 +43 опасность
перегрева
1005.3 1004.8
10 20.03 С 6 н/о н/о +33.4 +24.8 61 +47 +47 опасность
перегрева
1005.9 1005.4
11 20.03 С 5 н/о н/о +32.2 +25.0 66 +46 +46 опасность
перегрева
1006.8 1006.3
12 20.03 С 4 н/о н/о +32.0 +25.3 68 +46 +46 опасность
перегрева
1007.9 1007.4
13 20.03 С 2 н/о н/о +31.5 +24.9 68 +45 +45 опасность
перегрева
1008.1 1007.6 +39.6
14 20.03 штиль 0 н/о н/о +30.3 +24.4 71 +43 +43 опасность
перегрева
1008.0 1007.5
15 20.03 С 2 н/о н/о +30.3 +24.7 72 +43 +43 опасность
перегрева
1007.3 1006.8
16 20.03 З 4 н/о н/о +31.1 +24.7 69 +44 +44 опасность
перегрева
1006.9 1006.4
17 20.03 З 5 н/о н/о +31.0 +23.1 63 +41 +41 опасность
перегрева
1006.1 1005.6
18 20.03 З 4 н/о н/о +30.3 +23.0 65 +40 +40 очень
душно
1005.7 1005.2
19 20.03 З 5 н/о н/о +30.1 +22.3 63 +39 +39 очень
душно
1006.1 1005.6
20 20.03 З 4 н/о н/о +29.8 +21.7 62 +38 +38 очень
душно
1006.4 1005.9
21 20.03 З 5 н/о н/о +29.4 +21.4 62 +37 +37 очень
душно
1006.9 1006.4
22 20.03 З 5 н/о н/о +29.4 +21.9 64 +38 +38 очень
душно
1007.3 1006.8
23 20.03 З 5 н/о н/о +30.7 +21.8 59 +39 +39 очень
душно
1008.2 1007.7
00 21.03 З 8 н/о н/о +32.5 +21.4 52 +40 +40 очень
душно
1008.5 1008.0
01 21.03 З 7 н/о н/о +34.5 +21.2 46 +42 +42 опасность
перегрева
1008.4 1007.9 +29.0
02 21.03 ЮЗ 5 н/о н/о +35.9 +20.6 41 +42 +42 опасность
перегрева
1007.7 1007.2
03 21.03 ЮЗ 4 н/о н/о +37.1 +20.4 38 +43 +43 опасность
перегрева
1006.8 1006.3
04 21.03 З 3 н/о н/о +38.6 +19.9 34 +44 +44 опасность
перегрева
1005.6 1005.1
05 21.03 СЗ 4 н/о н/о +39.3 +18.5 30 +43 +43 опасность
перегрева
1004.8 1004.3
06 21.03 СЗ 3 н/о н/о +40.1 +17.5 27 +43 +43 опасность
перегрева
1004.0 1003.5
07 21.03 СЗ 3 н/о н/о +40.5 +17.3 26 +43 +43 опасность
перегрева
1003.2 1002.7
08 21.03 СЗ 3 н/о н/о +40.1 +16.9 26 +42 +42 опасность
перегрева
1003.1 1002.6
09 21.03 С 5 н/о н/о +37.4 +21.1 39 +44 +44 опасность
перегрева
1003.0 1002.5
10 21.03 С 5 н/о н/о +33.9 +24.2 57 +46 +46 опасность
перегрева
1003.7 1003.2
11 21.03 С 7 н/о н/о +34.6 +23.9 54 +46 +46 опасность
перегрева
1004.5 1004.0
12 21.03 СЗ 6 н/о н/о +34.7 +22.7 50 +44 +44 опасность
перегрева
1005.2 1004.7
13 21.03 СЗ 6 н/о н/о +34.6 +22.6 50 +44 +44 опасность
перегрева
1005.6 1005.1 +40.9
14 21.03 З 7 н/о н/о +34.1 +22.8 52 +44 +44 опасность
перегрева
1005.9 1005.4
16 21.03 З 7 н/о н/о +32.6 +21.8 53 +41 +41 опасность
перегрева
1005.9 1005.4
17 21.03 З 4 н/о н/о +31.4 +22.7 60 +41 +41 опасность
перегрева
1005.7 1005.2

 

Местоположение метеостанции Уиндем (Западная Австралия, Австралия): широта -15.50 долгота 128.15 высота над уровнем моря 4 м.

В архиве по умолчанию представлена погода в Уиндеме за последнюю неделю. Архивные данные за месяц целиком и за предыдущие месяцы, начиная с января 2011 года, Вы можете получить, выбрав интересующий диапазон дат из раскрывающегося списка и нажав кнопку "Ввод!".


*Определитесь, кто Вы:
робот инопланетянин человек

Внимание! Время в таблицах - всемирное. Для получения местного времени необходимо прибавить поправку, которая равна 8 ч.

Смотрите также архив погоды в соседних городах и на ближайших метеорологических станциях:

Погода в Кунунарре (Западная Австралия, Австралия) (68 км)
Погода в Аэропорту Аргайл (Западная Австралия, Австралия) (130 км)
Погода в Порт Китс (Северная территория, Австралия) (203 км)
Погода в Калумбуру (Западная Австралия, Австралия) (209 км)
Погода в Трускотте (Западная Австралия, Австралия) (247 км)
Погода на Острове Троутон (Западная Австралия, Австралия) (290 км)
Погода в Манбуллу Ксиро (Северная территория, Австралия) (291 км)
Погода в Холс Крик (Западная Австралия, Австралия) (308 км)
Погода в Виктория-Ривер (Северная территория, Австралия) (323 км)
Погода на Маяке Кейп-Дон (Северная территория, Австралия) (375 км)

Пояснения к столбцам:

Ветер - указаны скорость ветра в м/с - средняя за 10 мин, порывы в срок и между сроками (в фигурных скобках) и направление, откуда дует ветер: С - северный, СВ - северо-восточный, В - восточный, ЮВ - юго-восточный, Ю - южный, ЮЗ - юго-западный, З - западный, СЗ - северо-западный.
Видимость - горизонтальная дальность видимости в метрах или километрах. При видимости от 1 до 10 км при отсутствии осадков обычно наблюдается дымка, при ухудшении видимости до 1 км и менее - туман. В сухую погоду видимость может ухудшаться дымом, пылью или мглою.
Явления - указаны атмосферные явления, наблюдавшиеся в срок или в последний час перед сроком; фигурными скобками обозначены явления, наблюдавшиеся между сроками (за 1-3 часа до срока); квадратными скобками обозначены град или гололедные отложения с указанием их диаметра в мм.
Облачность - указаны через наклонную черту общая и нижняя облачность в баллах и высота нижней границы облаков в метрах; квадратными скобками обозначены формы облаков: Ci - перистые, Cs - перисто-слоистые, Cc - перисто-кучевые, Ac - высококучевые, As - высокослоистые, Sc - слоисто-кучевые, Ns - слоисто-дождевые, Cu - кучевые, Cb - кучево-дождевые. Подробнее классификацию облаков см. в Атласе облаков (PDF).
T - Температура воздуха - температура, измеренная на высоте 2 м над землей.
Td - Температура точки росы - температура, при понижении до которой содержащийся в воздухе водяной пар достигнет насыщения.
f - Относительная влажность воздуха - влажноcть воздуха, измеренная на высоте 2 м над землей.
Te - Эффективная температура - температура, которую ощущает одетый по сезону человек в тени. Характеристика душности погоды. При расчете учитывается влияние влажности воздуха и скорости ветра на теплоощущения человека.
Tes - Эффективная температура на солнце - температура, которую ощущает человек, с поправкой на солнечный нагрев. Характеристика знойности погоды. Зависит от высоты солнца над горизонтом, облачности и скорости ветра. Ночью, в пасмурную погоду, а также при ветре 12 м/с и более поправка равна нулю.
P - Атмосферное давление - приведенное к уровню моря атмосферное давление.
Po - Атмосферное давление - измеренное на уровне метеостанции атмосферное давление.
Tmin - Минимальная температура - минимум температуры воздуха на высоте 2 м над землей.
Tmax - Максимальная температура - максимум температуры воздуха на высоте 2 м над землей.
R - Количество осадков - Количество выпавших осадков за период времени, мм. При наведении курсора мыши на число - период времени, за который выпало указанное количество осадков.
R24 - Количество осадков - Количество выпавших осадков за 24 часа, мм.
S - Снежный покров - Высота снежного покрова, см. При наведении курсора мыши на число - состояние снежного покрова и степень покрытия местности в баллах.